Regional Weather Roundup
Issued by NWS Green Bay, WI

Home | Current Version | Previous Version | Graphics & Text | Print | Product List | Glossary Off
Versions: 1 2 3 4 5 6 7 8 9 10 11 12 13 14 15 16 17 18 19 20 21 22 23 24 25 26 27 28 29 30 31 32 33 34 35 36 37 38 39 40 41 42 43 44 45 46 47 48 49 50

000
ASUS43 KGRB 031911
RWRGRB

NORTH-CENTRAL AND NORTHEAST WISCONSIN REGIONAL WEATHER ROUNDUP
NATIONAL WEATHER SERVICE GREEN BAY WI
200 PM CDT MON AUG 03 2015

WIZ005-009-010>012-018-019-032000-
NORTH CENTRAL WISCONSIN

CITY           SKY/WX    TMP DP  RH WIND       PRES   REMARKS
IRONWOOD       CLOUDY    66  54  63 W14G22    29.80F
MANITOWISH WTR CLOUDY    64  51  62 NW10      29.84R
ARBOR VITAE    PTSUNNY   72  55  55 NW13G20   29.84R
EAGLE RIVER    PTSUNNY   66  47  50 NW12G18   29.82F
LAND O LAKES   CLOUDY    65  50  57 NW8       29.84R
RHINELANDER    CLOUDY    71  50  47 NW13G25   29.84S
PHILLIPS       CLOUDY    66  52  60 W7        29.85R
ANTIGO         CLOUDY    71  51  49 NW16      29.83S
TOMAHAWK       PTSUNNY   69  52  54 W14G22    29.84S
MERRILL        NOT AVBL
$$

WIZ013-073-032000-
NORTHEAST WISCONSIN

CITY           SKY/WX    TMP DP  RH WIND       PRES   REMARKS
IRON MOUNTAIN  LGT RAIN  64  55  72 NW13G22   29.79R
MARINETTE      PTSUNNY   73  50  43 NW6G16    29.76S
OCONTO         MOSUNNY   76  50  39 W15       29.77F
$$

WIZ017-030-035>037-045-032000-
CENTRAL WISCONSIN

CITY           SKY/WX    TMP DP  RH WIND       PRES   REMARKS
MEDFORD        CLOUDY    69  53  55 NW12G18   29.87R
WAUSAU         CLOUDY    74  51  44 NW15G21   29.83R
MOSINEE        CLOUDY    72  52  49 W12G17    29.86R
MARSHFIELD     PTSUNNY   74  49  41 NW16G24   29.85S
WISC RAPIDS    MOSUNNY   77  45  32 NW17G24   29.86S
STEVENS POINT  MOSUNNY   73  49  42 W12G23    29.85R
WAUPACA        MOSUNNY   80  45  29 W18       29.83S
SHAWANO        PTSUNNY   77  47  34 NW14G26   29.80S
CLINTONVILLE   PTSUNNY   75  43  31 W18G24    29.81S
$$

WIZ038-039-048-051-032000-
FOX VALLEY

CITY           SKY/WX    TMP DP  RH WIND       PRES   REMARKS
NWS GREEN BAY  SUNNY     77  53  43 W14       29.80F
APPLETON       PTSUNNY   75  45  33 NW12G17   29.82F
OSHKOSH        SUNNY     77  49  37 NW15G26   29.82S
FOND DU LAC    MOSUNNY   78  50  37 NW15G25   29.83F
$$

WIZ022-050-052-032000-
EAST CENTRAL WISCONSIN

CITY           SKY/WX    TMP DP  RH WIND       PRES   REMARKS
STURGEON BAY   PTSUNNY   73  52  46 W13       29.80S
MANITOWOC      SUNNY     76  46  34 MISG      29.80F
SHEBOYGAN      MOSUNNY   75  49  39 W17G25    29.82F
$$

LMZ563-521-522-541>543-032000-
LAKESHORE

STATION/POSITION TIME  TEMP    WIND        PRES    VSBY  WAVE
                       AIR SEA DIR/SP/G                  HT/PER
                 (UTC) (F)     (DEG/KT/KT) (MB)    (MI)  (FT/S)
SHEBOYGAN LKSHOR 1900   73     290/ 14/ 17 1009.7F
KEWAUNEE LKSHORE 1800   73     270/ 10/ 14 1008.4S
ALGOMA MARINA    1812          270/  7/ 10   N/A
NORTHPORT PIER   1800   70     220/  8/ 12 1007.8S
N MID LAKE BUOY  1850   68 67  210/ 10/ 12 1007.4F         1/ 5
S GREEN BAY BUOY 1900   71 72  240/  8/  8 1010.0F
SISTER BAY LKSHO 1818   73     230/ 10/ 12   N/A
CHAMBERS ISLAND  1800   71     250/  7/ 10 1008.1S
MENOMINEE LKSHOR 1800   73     280/  4/ 10 1008.9R
$$


USA.gov is the U.S. government's official web portal to all federal, state and local government web resources and services.